Content
SEND FEEDBACK

Daily
Averages
Monthly
Summary
United States of America

LAKESIDE, NEBRASKA


Home > North America > United States > Nebraska
Elevation: 3930 feet     Latitude: 42 03N     Longitude: 102 48W

WEATHER
 
SELECT A DAY
Number of Records: 193,862;   Date Range: 1/1/95 - 9/18/14
 
SHARE

PRINT THIS DATA

[ ← Previous Day ]
WEATHER ALMANAC - FEBRUARY 13, 2013
[ Next Day → ]
[ °C ]   °F
Weather ElementAverageHighLow
Temperature33.3 °F46.9 °F (2:53 pm)19.4 °F (4:53 am)
Dewpoint22.3 °F32 °F (6:53 pm)12 °F (2:53 am)
Humidity66.9 %92 % (6:53 pm)37 % (2:53 pm)
Barometer29.93 in30.01 in (10:53 pm)29.84 in (1:53 pm)
Wind Speed17.5 mph27.6 mph (1:53 pm)
Wind Gust38 mph (5:53 pm)
Weather ElementAverage
Visibility9.6 mi
Wind DirectionWNW (295.4 °)

Weather ElementTotal
Precipitation---
Heating Degree Days31.9 (Base 65)
Averaged from 26 records on February 13, 2013
WEATHER CONDITIONS BREAKOUT
WIND DIRECTION BREAKOUT
WEATHER BY HOUR - FEBRUARY 13, 2013
[ °C ]   °F
Local TimeTemperatureDewpointHumidityBarometerVisibilityWind DirectionWind SpeedGust SpeedPrecipitationEventsConditions
1:53 AM23.0 °F12.9 °F65 %29.98 in10.0 miWest (280°)12.7 mphClear
2:53 AM21.0 °F12.0 °F68 %29.96 in10.0 miWest (270°)13.8 mphClear
3:53 AM19.9 °F12.0 °F71 %29.96 in10.0 miWest (280°)12.7 mphClear
4:53 AM19.4 °F12.2 °F74 %29.87 in10.0 miWest (280°)11.5 mphClear
5:53 AM19.9 °F12.9 °F74 %29.97 in10.0 miWest (280°)13.8 mphClear
6:53 AM19.9 °F12.9 °F74 %29.97 in10.0 miWest (270°)11.5 mphClear
7:53 AM28.0 °F17.1 °F63 %29.95 in10.0 miWest (280°)15.0 mphClear
8:53 AM34.0 °F19.9 °F56 %29.94 in10.0 miWest (280°)24.2 mphClear
9:53 AM37.9 °F21.0 °F51 %29.91 in10.0 miWNW (290°)26.5 mph33.4 mphPartly Cloudy
10:53 AM42.1 °F21.0 °F43 %29.91 in10.0 miWNW (300°)25.3 mph32.2 mphClear
11:53 AM44.1 °F21.9 °F42 %29.88 in10.0 miWNW (300°)20.7 mph28.8 mphScattered Clouds
12:53 PM46.0 °F21.9 °F39 %29.85 in10.0 miWNW (300°)25.3 mph32.2 mphClear
1:53 PM46.0 °F21.9 °F39 %29.84 in10.0 miWNW (300°)27.6 mph36.8 mphPartly Cloudy
2:53 PM46.9 °F21.9 °F37 %29.85 in10.0 miNW (310°)20.7 mph29.9 mphScattered Clouds
3:53 PM45.0 °F23.0 °F42 %29.86 in10.0 miNW (310°)20.7 mph25.3 mphOvercast
4:53 PM39.0 °F28.9 °F67 %29.92 in10.0 miNNW (330°)12.7 mphOvercast
5:53 PM39.9 °F27.0 °F60 %29.94 in10.0 miNW (320°)27.6 mph38.0 mphOvercast
6:48 PM33.8 °F30.2 °F87 %29.90 in5.0 miNW (320°)18.4 mph27.6 mph0.00 inSnowLight Snow
6:53 PM34.0 °F32.0 °F92 %29.99 in5.0 miNW (320°)18.4 mph0.00 inSnowLight Snow
7:02 PM33.8 °F30.2 °F87 %29.90 in9.0 miNW (320°)19.6 mph26.5 mph0.00 inOvercast
7:16 PM33.8 °F30.2 °F87 %29.90 in10.0 miNW (310°)16.1 mph0.00 inMostly Cloudy
7:53 PM34.0 °F30.0 °F85 %29.96 in10.0 miWest (280°)17.3 mph0.00 inOvercast
8:53 PM32.0 °F28.0 °F85 %29.99 in10.0 miWNW (290°)11.5 mphPartly Cloudy
9:53 PM32.0 °F27.0 °F82 %30.00 in10.0 miWNW (300°)11.5 mphOvercast
10:53 PM30.0 °F26.1 °F85 %30.01 in10.0 miWest (280°)9.2 mphMostly Cloudy
11:53 PM30.0 °F26.1 °F85 %30.01 in10.0 miWest (280°)11.5 mphMostly Cloudy
Hourly data recorded from KAIA, located miles away from Lakeside, Nebraska







STORIES FROM OUR PARTNERS